sat.trackr.live / text

‹ back to catalog

YUNHAI-2 02F

NORAD 59285 · 2024-052F

PAYLOAD ACTIVE UNKNOWN

§ Identity

Operator
Country
PRC
Launch date
2024-03-21
Launch site
JSC
Launch vehicle
Mass (kg)
RCS (m²)

External: N2YO · Heavens-Above · Gunter

§ Orbital elements

Epoch: 2026-05-25T04:45:21.773952Z

Period
100.84 min
Inclination
50.0115°
Eccentricity
0.0005340
Mean motion
14.27980642 rev/d
Perigee alt
794.7 km
Apogee alt
802.3 km
Semi-major
7,176.6 km
B*
6.6838e-5
RAAN
300.3709°
Arg perigee
100.7480°
Mean anomaly
259.4036°
Rev number
11,587

§ Raw data

YUNHAI-2 02F1 59285U 24052F   26145.19816868  .00000006  00000+0  66838-4 0  99972 59285  50.0115 300.3709 0005340 100.7480 259.4036 14.27980642115871

JSON: /api/v1/satellites/59285 · /tle

For live sub-satellite position, see the globe view (requires WebGL).

§ Visibility from observer

Set your observer location to see the next 7 days of passes ≥ 10°. The values pass through the URL so the page stays shareable.

No JS? Fill the form by hand. The geolocation button needs JavaScript.